Location: Unspecified
(0.0000°N, 0.0000°E)
Time: 15:25:41
(UTC+00:00)

SIRIUS-3 - Visible Passes

Search period start: 03 August 2021 00:00
Search period end: 13 August 2021 00:00
Orbit: 24631 x 24674 km, 61.4° (Epoch: 01 August)

Date Brightness Start Highest point End Pass type
(mag) Time Alt. Az. Time Alt. Az. Time Alt. Az.
03 Aug ? 10:07:48 10° NNW 21:31:04 36° ENE 23:54:03 10° NNE visible
05 Aug ? 00:38:47 10° SSW 03:02:35 31° W 14:23:00 10° SSE visible
06 Aug ? 21:00:32 10° SSW 00:33:43 76° W 10:39:56 10° SE visible
08 Aug ? 11:27:43 10° NNW 22:12:49 57° E 01:15:51 10° NNE visible
10 Aug ? 02:39:00 10° SW 03:27:02 12° WSW 04:22:39 10° W visible
11 Aug ? 22:19:46 10° SSW 01:17:22 54° W 12:08:30 10° SSE visible
